Chievres, Belgium

9:21 AM CEST on July 26, 2017 (GMT +0200)
Chievres Air Base

Weather History for EBCV - December, 2013

Change the Weather History Date:

Monday, December 16, 2013

  Actual Average Record
Temperature  
Mean Temperature 47 °F -  
Max Temperature 53 °F 40 °F 56 °F (2015)
Min Temperature 41 °F 35 °F 26 °F (1997)
Degree Days  
Heating Degree Days 18    
Moisture  
Dew Point 38 °F    
Average Humidity 68    
Maximum Humidity 81    
Minimum Humidity 34    
Precipitation  
Precipitation 0.00 in - - ()
Sea Level Pressure  
Sea Level Pressure 30.22 in    
Wind  
Wind Speed 14 mph ()    
Max Wind Speed 20 mph    
Max Gust Speed -    
Visibility 6.7 miles    
Events      
Averages and records for this station are not official NWS values.
T = Trace of Precipitation, MM = Missing Value Source: Averaged Metar Reports

Daily Weather History Graph

Daily Weather History Graph

Search for Another Location

Airport or City:

Trip Planner

Search our weather history database for the weather conditions in past years. The results will help you decide how hot, cold, wet, or windy it might be!

Date:

Astronomy

Dec. 16, 2013 Rise Set
Actual Time 8:40 AM CET 4:40 PM CET
Civil Twilight 8:01 AM CET 5:19 PM CET
Nautical Twilight 7:18 AM CET 6:01 PM CET
Astronomical Twilight 6:38 AM CET 6:41 PM CET
Moon 4:24 PM CET (12/16) 7:28 AM CET (12/16)
Length of Visible Light 9h 18m
Length of Day
8h 00m
Waxing Gibbous, 99% of the Moon is Illuminated
Dec 16
Waxing Gibbous
Dec 17
Full
Dec 25
Last Quarter
Jan 1
New
Jan 8
First Quarter

Hourly Weather History & Observations

Time (CET) Temp. Windchill Dew Point Humidity Pressure Visibility Wind Dir Wind Speed Gust Speed Precip Events Conditions
12:25 AM 46.4 °F 39.2 °F 39.2 °F 76% 30.27 in 6.2 mi SSW 18.4 mph - N/A   Overcast
1:00 AM 45 °F - 38 °F 69% 30.28 in 16 mi SSW 20.1 mph - -   Scattered Clouds
1:25 AM 44.6 °F 36.9 °F 37.4 °F 76% 30.27 in 6.2 mi SSW 18.4 mph - N/A   Scattered Clouds
2:05 AM 44.6 °F 37.8 °F 37.4 °F 76% 30.27 in 6.2 mi SSW 15.0 mph - N/A   Overcast
2:25 AM 44.6 °F 37.8 °F 37.4 °F 76% 30.27 in 6.2 mi SSW 15.0 mph - N/A   Overcast
2:50 AM 44.6 °F 36.9 °F 37.4 °F 76% 30.27 in 6.2 mi SSW 18.4 mph - N/A   Overcast
3:25 AM 44.6 °F 37.2 °F 39.2 °F 81% 30.24 in 6.2 mi South 17.3 mph - N/A   Overcast
4:00 AM 45 °F - 39 °F 73% 30.27 in 12 mi SSW 15.7 mph - -   Partly Cloudy
4:25 AM 44.6 °F 36.9 °F 39.2 °F 81% 30.24 in 6.2 mi South 18.4 mph - N/A   Mostly Cloudy
5:25 AM 46.4 °F 39.5 °F 41.0 °F 81% 30.24 in 6.2 mi SSW 17.3 mph - N/A   Overcast
6:05 AM 46.4 °F 39.5 °F 39.2 °F 76% 30.21 in 6.2 mi SSW 17.3 mph - N/A   Overcast
6:09 AM 46.4 °F 39.5 °F 39.2 °F 76% 30.21 in 6.2 mi SSW 17.3 mph - N/A   Overcast
6:25 AM 46.4 °F 39.5 °F 39.2 °F 76% 30.21 in 6.2 mi SSW 17.3 mph - N/A   Mostly Cloudy
6:56 AM 46.4 °F 39.8 °F 39.2 °F 76% 30.21 in 6.2 mi SSW 16.1 mph - N/A   Mostly Cloudy
7:00 AM 47 °F - 39 °F 67% 30.24 in 22 mi SSW 15.7 mph - -   Mostly Cloudy
7:25 AM 46.4 °F 39.8 °F 39.2 °F 76% 30.21 in 6.2 mi South 16.1 mph - N/A   Scattered Clouds
8:25 AM 44.6 °F 38.4 °F 37.4 °F 76% 30.21 in 6.2 mi South 12.7 mph - N/A   Unknown
9:25 AM 42.8 °F 35.8 °F 37.4 °F 81% 30.21 in 6.2 mi South 13.8 mph - N/A   Unknown
10:00 AM 45 °F - 37 °F 66% 30.24 in 25 mi South 15.7 mph - -  
10:25 AM 46.4 °F 39.8 °F 37.4 °F 71% 30.21 in 6.2 mi South 16.1 mph - N/A   Unknown
11:25 AM 50.0 °F - 39.2 °F 66% 30.21 in 6.2 mi South 17.3 mph - N/A   Unknown
12:25 PM 53.6 °F - 35.6 °F 51% 30.21 in 6.2 mi SSW 16.1 mph - N/A   Unknown
1:00 PM 53 °F - 33 °F 34% 30.22 in 22 mi SSW 17.9 mph - -  
1:25 PM 53.6 °F - 33.8 °F 47% 30.18 in 6.2 mi SSW 19.6 mph - N/A   Unknown
2:25 PM 51.8 °F - 33.8 °F 50% 30.18 in 6.2 mi SSW 18.4 mph - N/A   Unknown
3:25 PM 50.0 °F - 35.6 °F 58% 30.18 in 6.2 mi South 10.4 mph - N/A   Unknown
4:00 PM 47 °F - 35 °F 53% 30.20 in 28 mi South 8.9 mph - -  
4:25 PM 48.2 °F - 35.6 °F 62% 30.18 in 6.2 mi South 12.7 mph - N/A   Unknown
4:45 PM 48.2 °F - 35.6 °F 62% 30.21 in 6.2 mi South 11.5 mph - N/A   Scattered Clouds
5:00 PM 48 °F - 36 °F 53% 30.22 in 25 mi South 11.2 mph - -   Mostly Cloudy
5:25 PM 46.4 °F 40.7 °F 37.4 °F 71% 30.21 in 6.2 mi South 12.7 mph - N/A   Partly Cloudy
5:40 PM 46.4 °F 41.1 °F 37.4 °F 71% 30.21 in 6.2 mi South 11.5 mph - N/A   Scattered Clouds
6:00 PM 47 °F - 38 °F 60% 30.22 in 25 mi South 11.2 mph - -   Mostly Cloudy
6:25 PM 48.2 °F - 39.2 °F 71% 30.21 in 6.2 mi South 9.2 mph - N/A   Overcast
7:00 PM 47 °F - 38 °F 62% 30.24 in 28 mi South 11.2 mph - -   Partly Cloudy
7:25 PM 48.2 °F - 37.4 °F 66% 30.21 in 6.2 mi South 13.8 mph - N/A   Overcast
8:25 PM 48.2 °F - 39.2 °F 71% 30.21 in 6.2 mi South 12.7 mph - N/A   Overcast
9:00 PM 47 °F - 39 °F 67% 30.23 in 25 mi South 11.2 mph - -   Overcast
9:25 PM 46.4 °F 40.4 °F 39.2 °F 76% 30.21 in 6.2 mi South 13.8 mph - N/A   Mostly Cloudy
10:00 PM 45 °F - 38 °F 68% 30.23 in 28 mi South 11.2 mph - -   Scattered Clouds
10:03 PM 44.6 °F 38.8 °F 37.4 °F 76% 30.21 in 6.2 mi South 11.5 mph - N/A   Partly Cloudy
10:25 PM 44.6 °F 38.8 °F 37.4 °F 76% 30.21 in 6.2 mi South 11.5 mph - N/A   Unknown
11:00 PM 44 °F - 36 °F 66% 30.22 in 28 mi South 8.9 mph - -  
11:25 PM 44.6 °F 39.2 °F 35.6 °F 71% 30.21 in 6.2 mi South 10.4 mph - N/A   Unknown